| time (UTC) | temp F | wind direction | speed MPH | gust MPH | rain 1hr in | rain 24hr in | rain mn in | humidity % | barometer mb |
| 20260510135700 | 69 | 138 | 1.0 | 7.0 | 0.00 | 0.00 | 0.00 | 1 | 1017.9 |
| 20260510134700 | 69 | 145 | 5.0 | 7.0 | 0.00 | 0.00 | 0.00 | 1 | 1017.9 |
| 20260510133659 | 68 | 138 | 3.0 | 5.0 | 0.00 | 0.00 | 0.00 | 1 | 1017.9 |
| 20260510132658 | 67 | 155 | 2.0 | 4.0 | 0.00 | 0.00 | 0.00 | 1 | 1018.3 |
| 20260510131658 | 66 | 177 | 2.0 | 4.0 | 0.00 | 0.00 | 0.00 | 1 | 1017.9 |
| 20260510130657 | 65 | 158 | 1.0 | 5.0 | 0.00 | 0.00 | 0.00 | 1 | 1017.9 |
| 20260510125656 | 64 | 152 | 2.0 | 5.0 | 0.00 | 0.00 | 0.00 | 1 | 1017.9 |
| 20260510124656 | 62 | 135 | 1.0 | 1.0 | 0.00 | 0.00 | 0.00 | 1 | 1017.9 |
| 20260510123655 | 60 | 156 | 0.0 | 1.0 | 0.00 | 0.00 | 0.00 | 1 | 1017.6 |
| 20260510122655 | 59 | 157 | 1.0 | 1.0 | 0.00 | 0.00 | 0.00 | 1 | 1017.6 |
| 20260510121654 | 58 | 156 | 1.0 | 1.0 | 0.00 | 0.00 | 0.00 | 1 | 1017.6 |
| 20260510120653 | 57 | 158 | 0.0 | 1.0 | 0.00 | 0.00 | 0.00 | 1 | 1017.3 |
| 20260510115652 | 56 | 158 | 0.0 | 1.0 | 0.00 | 0.00 | 0.00 | 1 | 1017.3 |
| 20260510114651 | 56 | 158 | 1.0 | 1.0 | 0.00 | 0.00 | 0.00 | 1 | 1016.9 |
| 20260510113650 | 55 | 158 | 1.0 | 2.0 | 0.00 | 0.00 | 0.00 | 1 | 1016.9 |
| 20260510083628 | 56 | 190 | 0.0 | 0.0 | 0.00 | 0.00 | 0.00 | 1 | 1015.2 |
| 20260510082627 | 56 | 190 | 0.0 | 0.0 | 0.00 | 0.00 | 0.00 | 1 | 1015.2 |
| 20260510081626 | 56 | 190 | 0.0 | 0.0 | 0.00 | 0.00 | 0.00 | 1 | 1014.9 |
| 20260510080626 | 57 | 190 | 0.0 | 0.0 | 0.00 | 0.00 | 0.00 | 1 | 1014.9 |
| 20260510075625 | 57 | 190 | 0.0 | 0.0 | 0.00 | 0.00 | 0.00 | 1 | 1014.6 |
| 20260510074625 | 57 | 190 | 0.0 | 0.0 | 0.00 | 0.00 | 0.00 | 1 | 1014.6 |
| 20260510073624 | 58 | 190 | 0.0 | 0.0 | 0.00 | 0.00 | 0.00 | 1 | 1014.6 |
| 20260510072552 | 58 | 190 | 0.0 | 0.0 | 0.00 | 0.00 | 0.00 | 1 | 1014.6 |
| 20260510071552 | 58 | 190 | 0.0 | 0.0 | 0.00 | 0.00 | 0.00 | 1 | 1014.6 |
| 20260510070551 | 58 | 190 | 0.0 | 0.0 | 0.00 | 0.00 | 0.00 | 1 | 1014.6 |
| 20260510065550 | 59 | 190 | 0.0 | 0.0 | 0.00 | 0.00 | 0.00 | 1 | 1014.6 |
| 20260510064549 | 59 | 190 | 0.0 | 0.0 | 0.00 | 0.00 | 0.00 | 1 | 1014.6 |
| 20260510063548 | 60 | 190 | 0.0 | 0.0 | 0.00 | 0.00 | 0.00 | 1 | 1014.6 |
| 20260510062548 | 60 | 190 | 0.0 | 0.0 | 0.00 | 0.00 | 0.00 | 1 | 1014.6 |
| 20260510061547 | 61 | 190 | 0.0 | 0.0 | 0.00 | 0.00 | 0.00 | 1 | 1014.6 |
| 20260510060546 | 62 | 190 | 0.0 | 2.0 | 0.00 | 0.00 | 0.00 | 1 | 1014.6 |
| 20260510055545 | 62 | 196 | 1.0 | 2.0 | 0.00 | 0.00 | 0.00 | 1 | 1014.6 |
| 20260510054442 | 62 | 153 | 0.0 | 2.0 | 0.00 | 0.00 | 0.00 | 1 | 1014.6 |
| 20260510053441 | 62 | 148 | 1.0 | 3.0 | 0.00 | 0.00 | 0.00 | 1 | 1014.6 |
| 20260510052410 | 62 | 155 | 1.0 | 3.0 | 0.00 | 0.00 | 0.00 | 1 | 1014.6 |
| 20260510051409 | 63 | 146 | 1.0 | 3.0 | 0.00 | 0.00 | 0.00 | 1 | 1014.6 |
| 20260510050408 | 62 | 136 | 1.0 | 2.0 | 0.00 | 0.00 | 0.00 | 1 | 1014.9 |
| 20260510045407 | 62 | 160 | 1.0 | 3.0 | 0.00 | 0.00 | 0.00 | 1 | 1014.9 |
| 20260510044407 | 63 | 148 | 1.0 | 3.0 | 0.00 | 0.00 | 0.00 | 1 | 1014.6 |
| 20260510043406 | 63 | 148 | 1.0 | 3.0 | 0.00 | 0.00 | 0.00 | 1 | 1014.6 |
| 20260510042405 | 63 | 166 | 1.0 | 3.0 | 0.00 | 0.00 | 0.00 | 1 | 1014.6 |
| 20260510041404 | 63 | 148 | 1.0 | 3.0 | 0.00 | 0.00 | 0.00 | 1 | 1014.6 |
| 20260510040403 | 63 | 166 | 1.0 | 3.0 | 0.00 | 0.00 | 0.00 | 1 | 1014.6 |
| 20260510035403 | 64 | 214 | 1.0 | 5.0 | 0.00 | 0.00 | 0.00 | 1 | 1014.6 |
| 20260510034402 | 64 | 185 | 1.0 | 5.0 | 0.00 | 0.00 | 0.00 | 1 | 1014.6 |
| 20260510033401 | 64 | 211 | 1.0 | 3.0 | 0.00 | 0.00 | 0.00 | 2 | 1014.6 |
| 20260510032400 | 64 | 207 | 1.0 | 3.0 | 0.00 | 0.00 | 0.00 | 5 | 1014.6 |
| 20260510031400 | 65 | 164 | 1.0 | 4.0 | 0.00 | 0.00 | 0.00 | 10 | 1014.6 |
| 20260510030359 | 65 | 211 | 2.0 | 4.0 | 0.00 | 0.00 | 0.00 | 12 | 1014.6 |
| 20260510025358 | 66 | 204 | 1.0 | 4.0 | 0.00 | 0.00 | 0.00 | 14 | 1014.2 |
| 20260510024357 | 66 | 203 | 2.0 | 6.0 | 0.00 | 0.00 | 0.00 | 16 | 1014.2 |
| 20260510023357 | 66 | 211 | 2.0 | 6.0 | 0.00 | 0.00 | 0.00 | 16 | 1013.9 |
| 20260510022254 | 67 | 209 | 2.0 | 4.0 | 0.00 | 0.00 | 0.00 | 21 | 1013.9 |
| 20260510021253 | 66 | 219 | 2.0 | 5.0 | 0.00 | 0.00 | 0.00 | 17 | 1013.5 |
| 20260510020221 | 66 | 167 | 2.0 | 5.0 | 0.00 | 0.00 | 0.00 | 8 | 1013.2 |
| 20260510015220 | 65 | 199 | 2.0 | 4.0 | 0.00 | 0.00 | 0.00 | 1 | 1013.2 |